User: anonymous   Login
Location: Unspecified
(0.0000°N, 0.0000°E)
Time: 05:00:55
(UTC+00:00)
Language:

ASGARDIA 1 - Orbit

View from above orbital plane
View from above orbital plane
View from above satellite
View from above satellite

Ground track
Ground track

The orbit data is extracted from the following two-line orbital elements,

1 43049U 17071N   18319.55174412 +.00002485 +00000-0 +71374-4 0  9992
2 43049 051.6408 023.2743 0002925 111.0973 249.0325 15.39927023052897
Epoch (UTC): 15 November 2018 13:14:30
Eccentricity: 0.0002925
inclination: 51.6408°
perigee height: 444 km
apogee height: 448 km
right ascension of ascending node: 23.2743°
argument of perigee: 111.0973°
revolutions per day: 15.39927023
mean anomaly at epoch: 249.0325°
orbit number at epoch: 5289

The dashed part of the orbit path shows where the satellite is in the earth's shadow,  

DLR